,,,PA_Meas_PMT16A,,PR_Meas_QMR101_102,,RH_Meas_QMH101,,SR_Meas_QMS101,,TA_Meas_QMH101,,GenWind,,GenWind,
date,time,status,PA,status,PR,status,RH,status,SR,status,TA,status,DirAvg,status,SpdAvg,
2012-06-05, 00:00:04,VALID,998.055,VALID,0,VALID,59.2974,VALID,0,VALID,28.4419,VALID,188,VALID,4.11914,
2012-06-05, 00:01:04,VALID,998.07,VALID,0,VALID,59.5721,VALID,0,VALID,28.4224,VALID,194,VALID,2.80508,
2012-06-05, 00:02:04,VALID,998.047,VALID,0,VALID,59.8315,VALID,0,VALID,28.405,VALID,193,VALID,3.28672,
2012-06-05, 00:03:04,VALID,997.974,VALID,0,VALID,59.5263,VALID,0,VALID,28.4071,VALID,193,VALID,4.89375,
2012-06-05, 00:04:04,VALID,998.052,VALID,0,VALID,59.7247,VALID,0,VALID,28.3854,VALID,187,VALID,4.32852,
2012-06-05, 00:05:04,VALID,998.016,VALID,0,VALID,60.1138,VALID,0,VALID,28.3659,VALID,180,VALID,3.89063,
2012-06-05, 00:06:04,VALID,998.012,VALID,0,VALID,59.8315,VALID,0,VALID,28.3073,VALID,173,VALID,5.16875,
2012-06-05, 00:07:04,VALID,997.941,VALID,0,VALID,59.6407,VALID,0,VALID,28.3073,VALID,171,VALID,4.81016,
2012-06-05, 00:08:04,VALID,997.933,VALID,0,VALID,59.2059,VALID,0,VALID,28.3464,VALID,187,VALID,5.17578,
2012-06-05, 00:09:04,VALID,997.955,VALID,0,VALID,59.4729,VALID,0,VALID,28.3464,VALID,195,VALID,5.18984,
2012-06-05, 00:10:04,VALID,997.977,VALID,0,VALID,59.5492,VALID,0,VALID,28.3464,VALID,202,VALID,3.91797,
2012-06-05, 00:11:04,VALID,997.987,VALID,0,VALID,59.6484,VALID,0,VALID,28.3073,VALID,196,VALID,3.23672,
2012-06-05, 00:12:04,VALID,997.983,VALID,0,VALID,59.4271,VALID,0,VALID,28.3268,VALID,201,VALID,3.5457,
2012-06-05, 00:13:04,VALID,997.978,VALID,0,VALID,59.2669,VALID,0,VALID,28.3073,VALID,189,VALID,3.62539,
2012-06-05, 00:14:04,VALID,997.946,VALID,0,VALID,59.183,VALID,0,VALID,28.3268,VALID,198,VALID,4.33164,
2012-06-05, 00:15:04,VALID,997.939,VALID,0,VALID,59.3966,VALID,0,VALID,28.3268,VALID,209,VALID,2.14336,
2012-06-05, 00:16:04,VALID,997.927,VALID,0,VALID,59.1448,VALID,0,VALID,28.3268,VALID,197,VALID,3.21797,
2012-06-05, 00:17:04,VALID,997.919,VALID,0,VALID,58.3132,VALID,0,VALID,28.3268,VALID,184,VALID,4.3,
2012-06-05, 00:18:04,VALID,997.905,VALID,0,VALID,58.2064,VALID,0,VALID,28.3659,VALID,194,VALID,4.11719,
2012-06-05, 00:19:04,VALID,997.897,VALID,0,VALID,58.2598,VALID,0,VALID,28.3854,VALID,193,VALID,4.2457,
2012-06-05, 00:20:04,VALID,997.917,VALID,0,VALID,57.9241,VALID,0,VALID,28.405,VALID,195,VALID,3.7375,
2012-06-05, 00:21:04,VALID,997.923,VALID,0,VALID,57.7257,VALID,0,VALID,28.4245,VALID,198,VALID,4.275,
2012-06-05, 00:22:04,VALID,997.898,VALID,0,VALID,57.6799,VALID,0,VALID,28.405,VALID,194,VALID,3.02422,
2012-06-05, 00:23:04,VALID,997.844,VALID,0,VALID,57.39,VALID,0,VALID,28.4441,VALID,214,VALID,3.82422,
2012-06-05, 00:24:04,VALID,997.829,VALID,0,VALID,57.2221,VALID,0,VALID,28.4441,VALID,210,VALID,4.17578,
2012-06-05, 00:25:04,VALID,997.853,VALID,0,VALID,57.5807,VALID,0,VALID,28.4853,VALID,188,VALID,3.33164,
2012-06-05, 00:26:04,VALID,997.834,VALID,0,VALID,57.5579,VALID,0,VALID,28.405,VALID,200,VALID,2.59375,
2012-06-05, 00:27:04,VALID,997.76,VALID,0,VALID,56.8559,VALID,0,VALID,28.4245,VALID,200,VALID,4.71875,
2012-06-05, 00:28:04,VALID,997.75,VALID,0,VALID,56.6118,VALID,0,VALID,28.5027,VALID,201,VALID,4.67344,
2012-06-05, 00:29:04,VALID,997.759,VALID,0,VALID,56.5202,VALID,0,VALID,28.5222,VALID,194,VALID,4.47148,
2012-06-05, 00:30:04,VALID,997.711,VALID,0,VALID,56.0472,VALID,0,VALID,28.5613,VALID,185,VALID,4.71914,
2012-06-05, 00:31:04,VALID,997.634,VALID,0,VALID,55.6657,VALID,0,VALID,28.6004,VALID,190,VALID,5.79414,
2012-06-05, 00:32:04,VALID,997.675,VALID,0,VALID,55.8336,VALID,0,VALID,28.6004,VALID,199,VALID,3.70898,
2012-06-05, 00:33:04,VALID,997.621,VALID,0,VALID,55.1011,VALID,0,VALID,28.6199,VALID,186,VALID,4.61797,
2012-06-05, 00:34:04,VALID,997.658,VALID,0,VALID,54.7807,VALID,0,VALID,28.7393,VALID,186,VALID,5.25195,
2012-06-05, 00:35:04,VALID,997.691,VALID,0,VALID,55.0019,VALID,0,VALID,28.7198,VALID,203,VALID,3.52891,
2012-06-05, 00:36:04,VALID,997.641,VALID,0,VALID,54.7196,VALID,0,VALID,28.7372,VALID,196,VALID,5.76445,
2012-06-05, 00:37:04,VALID,997.669,VALID,0,VALID,54.3458,VALID,0,VALID,28.7567,VALID,204,VALID,4.8125,
2012-06-05, 00:38:04,VALID,997.684,VALID,0,VALID,54.1474,VALID,0,VALID,28.7958,VALID,181,VALID,5.90078,
2012-06-05, 00:39:04,VALID,997.688,VALID,0,VALID,54.2542,VALID,0,VALID,28.8153,VALID,210,VALID,4.73711,
2012-06-05, 00:40:04,VALID,997.684,VALID,0,VALID,54.0406,VALID,0,VALID,28.7958,VALID,190,VALID,4.22383,
2012-06-05, 00:41:04,VALID,997.612,VALID,0,VALID,53.9338,VALID,0,VALID,28.8175,VALID,214,VALID,4.73008,
2012-06-05, 00:42:04,VALID,997.609,VALID,0,VALID,54.3916,VALID,0,VALID,28.7958,VALID,205,VALID,3.73398,
2012-06-05, 00:43:04,VALID,997.609,VALID,0,VALID,54.5823,VALID,0,VALID,28.7567,VALID,198,VALID,3.6418,
2012-06-05, 00:44:04,VALID,997.596,VALID,0,VALID,54.4679,VALID,0,VALID,28.7176,VALID,192,VALID,4.13164,
2012-06-05, 00:45:04,VALID,997.586,VALID,0,VALID,54.5976,VALID,0,VALID,28.8153,VALID,187,VALID,4.60352,
2012-06-05, 00:46:04,VALID,997.573,VALID,0,VALID,54.7654,VALID,0,VALID,28.7762,VALID,213,VALID,3.9543,
2012-06-05, 00:47:04,VALID,997.557,VALID,0,VALID,54.8875,VALID,0,VALID,28.7567,VALID,183,VALID,3.60508,
2012-06-05, 00:48:04,VALID,997.557,VALID,0,VALID,55.0782,VALID,0,VALID,28.6981,VALID,191,VALID,2.47031,
2012-06-05, 00:49:04,VALID,997.453,VALID,0,VALID,55.475,VALID,0,VALID,28.7372,VALID,213,VALID,5.76836,
2012-06-05, 00:50:04,VALID,997.437,VALID,0,VALID,55.4216,VALID,0,VALID,28.8544,VALID,185,VALID,7.45117,
2012-06-05, 00:51:04,VALID,997.485,VALID,0,VALID,55.2919,VALID,0,VALID,28.8935,VALID,179,VALID,4.67266,
2012-06-05, 00:52:04,VALID,997.514,VALID,0,VALID,55.1011,VALID,0,VALID,28.874,VALID,195,VALID,5.20586,
2012-06-05, 00:53:04,VALID,997.551,VALID,0,VALID,55.3529,VALID,0,VALID,28.8544,VALID,193,VALID,2.98125,
2012-06-05, 00:54:04,VALID,997.543,VALID,0,VALID,55.7573,VALID,0,VALID,28.8153,VALID,202,VALID,4.48281,
2012-06-05, 00:55:04,VALID,997.512,VALID,0,VALID,56.0777,VALID,0,VALID,28.8349,VALID,195,VALID,4.59766,
2012-06-05, 00:56:04,VALID,997.582,VALID,0,VALID,55.9099,VALID,0,VALID,28.8544,VALID,193,VALID,4.13398,
2012-06-05, 00:57:04,VALID,997.547,VALID,0,VALID,56.1311,VALID,0,VALID,28.8544,VALID,200,VALID,3.84609,
2012-06-05, 00:58:04,VALID,997.544,VALID,0,VALID,56.566,VALID,0,VALID,28.8349,VALID,191,VALID,3.82734,
2012-06-05, 00:59:04,VALID,997.534,VALID,0,VALID,56.4821,VALID,0,VALID,28.8566,VALID,193,VALID,4.65195,
2012-06-05, 01:00:04,VALID,997.551,VALID,0,VALID,56.7873,VALID,0,VALID,28.8349,VALID,183,VALID,4.45078,
2012-06-05, 01:01:04,VALID,997.548,VALID,0,VALID,56.7262,VALID,0,VALID,28.8349,VALID,198,VALID,3.69805,
2012-06-05, 01:02:04,VALID,997.561,VALID,0,VALID,56.7339,VALID,0,VALID,28.7958,VALID,193,VALID,2.92227,
2012-06-05, 01:03:04,VALID,997.538,VALID,0,VALID,57.1077,VALID,0,VALID,28.7741,VALID,177,VALID,3.46992,
2012-06-05, 01:04:04,VALID,997.498,VALID,0,VALID,57.1611,VALID,0,VALID,28.8153,VALID,193,VALID,5.46914,
2012-06-05, 01:05:04,VALID,997.539,VALID,0,VALID,57.2984,VALID,0,VALID,28.874,VALID,184,VALID,4.60078,
2012-06-05, 01:06:04,VALID,997.505,VALID,0,VALID,57.1764,VALID,0,VALID,28.913,VALID,182,VALID,4.75234,
2012-06-05, 01:07:04,VALID,997.496,VALID,0,VALID,57.4282,VALID,0,VALID,28.913,VALID,193,VALID,3.15195,
2012-06-05, 01:08:04,VALID,997.502,VALID,0,VALID,57.5502,VALID,0,VALID,28.9326,VALID,176,VALID,4.0543,
2012-06-05, 01:09:04,VALID,997.517,VALID,0,VALID,57.4892,VALID,0,VALID,28.8935,VALID,187,VALID,3.55938,
2012-06-05, 01:10:04,VALID,997.52,VALID,0,VALID,58.0538,VALID,0,VALID,28.8349,VALID,170,VALID,3.01445,
2012-06-05, 01:11:04,VALID,997.52,VALID,0,VALID,58.3361,VALID,0,VALID,28.7176,VALID,165,VALID,2.73828,
2012-06-05, 01:12:04,VALID,997.525,VALID,0,VALID,58.5573,VALID,0,VALID,28.5787,VALID,160,VALID,2.52734,
2012-06-05, 01:13:04,VALID,997.537,VALID,0,VALID,59.5187,VALID,0,VALID,28.4636,VALID,159,VALID,1.89375,
2012-06-05, 01:14:04,VALID,997.56,VALID,0,VALID,59.5644,VALID,0,VALID,28.3464,VALID,158,VALID,1.50859,
2012-06-05, 01:15:04,VALID,997.553,VALID,0,VALID,60.274,VALID,0,VALID,28.2487,VALID,163,VALID,1.18398,
2012-06-05, 01:16:04,VALID,997.565,VALID,0,VALID,60.3808,VALID,0,VALID,28.1705,VALID,156,VALID,1.38203,
2012-06-05, 01:17:04,VALID,997.535,VALID,0,VALID,60.7547,VALID,0,VALID,28.0533,VALID,153,VALID,1.69727,
2012-06-05, 01:18:04,VALID,997.552,VALID,0,VALID,61.4261,VALID,0,VALID,27.9361,VALID,152,VALID,1.80586,
2012-06-05, 01:19:04,VALID,997.554,VALID,0,VALID,62.3645,VALID,0,VALID,27.8189,VALID,133,VALID,1.60625,
2012-06-05, 01:20:04,VALID,997.585,VALID,0,VALID,62.9367,VALID,0,VALID,27.6626,VALID,143,VALID,1.31836,
2012-06-05, 01:21:04,VALID,997.548,VALID,0,VALID,63.57,VALID,0,VALID,27.5258,VALID,164,VALID,1.14297,
2012-06-05, 01:22:04,VALID,997.57,VALID,0,VALID,63.7836,VALID,0,VALID,27.4672,VALID,165,VALID,1.88867,
2012-06-05, 01:23:04,VALID,997.548,VALID,0,VALID,63.5471,VALID,0,VALID,27.5845,VALID,193,VALID,2.42695,
2012-06-05, 01:24:04,VALID,997.517,VALID,0,VALID,62.1204,VALID,0,VALID,27.9556,VALID,189,VALID,3.00273,
2012-06-05, 01:25:04,VALID,997.547,VALID,0,VALID,61.4032,VALID,0,VALID,28.1293,VALID,182,VALID,3.30117,
2012-06-05, 01:26:04,VALID,997.569,VALID,0,VALID,60.9301,VALID,0,VALID,28.2487,VALID,202,VALID,3.025,
2012-06-05, 01:27:04,VALID,997.599,VALID,0,VALID,60.8844,VALID,0,VALID,28.2878,VALID,191,VALID,2.83516,
2012-06-05, 01:28:04,VALID,997.56,VALID,0,VALID,60.625,VALID,0,VALID,28.3464,VALID,181,VALID,2.97578,
2012-06-05, 01:29:04,VALID,997.579,VALID,0,VALID,60.8462,VALID,0,VALID,28.3464,VALID,185,VALID,2.51992,
2012-06-05, 01:30:04,VALID,997.58,VALID,0,VALID,60.6326,VALID,0,VALID,28.3464,VALID,181,VALID,2.42578,
2012-06-05, 01:31:04,VALID,997.596,VALID,0,VALID,60.6173,VALID,0,VALID,28.3268,VALID,170,VALID,4.16055,
2012-06-05, 01:32:04,VALID,997.549,VALID,0,VALID,60.9301,VALID,0,VALID,28.3268,VALID,205,VALID,2.21328,
2012-06-05, 01:33:04,VALID,997.517,VALID,0,VALID,60.6402,VALID,0,VALID,28.3464,VALID,207,VALID,3.03594,
2012-06-05, 01:34:04,VALID,997.47,VALID,0,VALID,59.7628,VALID,0,VALID,28.4831,VALID,215,VALID,4.0582,
2012-06-05, 01:35:04,VALID,997.554,VALID,0,VALID,59.4576,VALID,0,VALID,28.6199,VALID,206,VALID,4.53945,
2012-06-05, 01:36:04,VALID,997.513,VALID,0,VALID,59.0761,VALID,0,VALID,28.6395,VALID,202,VALID,4.12187,
2012-06-05, 01:37:04,VALID,997.537,VALID,0,VALID,59.2898,VALID,0,VALID,28.659,VALID,216,VALID,2.59609,
2012-06-05, 01:38:04,VALID,997.52,VALID,0,VALID,59.4881,VALID,0,VALID,28.6199,VALID,186,VALID,3.2,
2012-06-05, 01:39:04,VALID,997.509,VALID,0,VALID,59.6026,VALID,0,VALID,28.5591,VALID,202,VALID,3.65156,
2012-06-05, 01:40:04,VALID,997.527,VALID,0,VALID,60.1214,VALID,0,VALID,28.5027,VALID,202,VALID,2.5543,
2012-06-05, 01:41:04,VALID,997.536,VALID,0,VALID,60.3961,VALID,0,VALID,28.3833,VALID,192,VALID,3.02734,
2012-06-05, 01:42:04,VALID,997.454,VALID,0,VALID,60.4724,VALID,0,VALID,28.3442,VALID,207,VALID,3.33672,
2012-06-05, 01:43:04,VALID,997.491,VALID,0,VALID,60.8996,VALID,0,VALID,28.2856,VALID,205,VALID,2.39063,
2012-06-05, 01:44:04,VALID,997.506,VALID,0,VALID,60.8767,VALID,0,VALID,28.2878,VALID,185,VALID,3.7082,
2012-06-05, 01:45:04,VALID,997.458,VALID,0,VALID,60.8615,VALID,0,VALID,28.2878,VALID,232,VALID,2.99102,
2012-06-05, 01:46:04,VALID,997.489,VALID,0,VALID,60.6555,VALID,0,VALID,28.2878,VALID,218,VALID,3.45234,
2012-06-05, 01:47:04,VALID,997.479,VALID,0,VALID,60.7013,VALID,0,VALID,28.2878,VALID,214,VALID,2.84844,
2012-06-05, 01:48:04,VALID,997.491,VALID,0,VALID,60.7318,VALID,0,VALID,28.2487,VALID,228,VALID,4.26133,
2012-06-05, 01:49:04,VALID,997.509,VALID,0,VALID,60.8767,VALID,0,VALID,28.2075,VALID,210,VALID,3.91914,
2012-06-05, 01:50:04,VALID,997.489,VALID,0,VALID,61.0217,VALID,0,VALID,28.1879,VALID,223,VALID,3.04023,
2012-06-05, 01:51:04,VALID,997.569,VALID,0,VALID,61.2811,VALID,0,VALID,28.1293,VALID,221,VALID,2.81797,
2012-06-05, 01:52:04,VALID,997.544,VALID,0,VALID,61.2887,VALID,0,VALID,28.1315,VALID,201,VALID,3.75117,
2012-06-05, 01:53:04,VALID,997.563,VALID,0,VALID,61.5024,VALID,0,VALID,28.0512,VALID,228,VALID,3.19219,
2012-06-05, 01:54:04,VALID,997.617,VALID,0,VALID,61.6931,VALID,0,VALID,28.0316,VALID,215,VALID,2.05508,
2012-06-05, 01:55:04,VALID,997.606,VALID,0,VALID,62.0364,VALID,0,VALID,27.9947,VALID,200,VALID,2.49336,
2012-06-05, 01:56:04,VALID,997.68,VALID,0,VALID,61.9601,VALID,0,VALID,27.973,VALID,221,VALID,2.25117,
2012-06-05, 01:57:04,VALID,997.646,VALID,0,VALID,62.1738,VALID,0,VALID,27.9752,VALID,200,VALID,1.83555,
2012-06-05, 01:58:04,VALID,997.662,VALID,0,VALID,62.189,VALID,0,VALID,27.9556,VALID,206,VALID,1.66289,
2012-06-05, 01:59:04,VALID,997.648,VALID,0,VALID,62.3569,VALID,0,VALID,27.9556,VALID,204,VALID,1.90508,
2012-06-05, 02:00:04,VALID,997.692,VALID,0,VALID,62.3798,VALID,0,VALID,27.9556,VALID,204,VALID,3.13047,
2012-06-05, 02:01:04,VALID,997.679,VALID,0,VALID,62.3493,VALID,0,VALID,27.9556,VALID,206,VALID,3.41641,
2012-06-05, 02:02:04,VALID,997.694,VALID,0,VALID,62.4103,VALID,0,VALID,27.9556,VALID,216,VALID,2.04727,
2012-06-05, 02:03:04,VALID,997.695,VALID,0,VALID,62.5553,VALID,0,VALID,27.8949,VALID,222,VALID,3.36133,
2012-06-05, 02:04:04,VALID,997.708,VALID,0,VALID,62.8986,VALID,0,VALID,27.8579,VALID,228,VALID,3.25273,
2012-06-05, 02:05:04,VALID,997.718,VALID,0,VALID,62.9291,VALID,0,VALID,27.8384,VALID,213,VALID,3.11836,
2012-06-05, 02:06:04,VALID,997.741,VALID,0,VALID,63.1275,VALID,0,VALID,27.7993,VALID,218,VALID,2.85469,
2012-06-05, 02:07:04,VALID,997.738,VALID,0,VALID,63.2038,VALID,0,VALID,27.7582,VALID,203,VALID,2.65625,
2012-06-05, 02:08:04,VALID,997.752,VALID,0,VALID,63.0741,VALID,0,VALID,27.7777,VALID,221,VALID,4.66016,
2012-06-05, 02:09:04,VALID,997.75,VALID,0,VALID,63.1504,VALID,0,VALID,27.7972,VALID,202,VALID,2.9293,
2012-06-05, 02:10:04,VALID,997.786,VALID,0,VALID,63.3869,VALID,0,VALID,27.7972,VALID,213,VALID,3.22383,
2012-06-05, 02:11:04,VALID,997.803,VALID,0,VALID,63.1961,VALID,0,VALID,27.8384,VALID,192,VALID,3.28008,
2012-06-05, 02:12:04,VALID,997.802,VALID,0,VALID,63.2572,VALID,0,VALID,27.7972,VALID,202,VALID,4.37773,
2012-06-05, 02:13:04,VALID,997.806,VALID,0,VALID,63.3182,VALID,0,VALID,27.7993,VALID,193,VALID,3.52187,
2012-06-05, 02:14:04,VALID,997.753,VALID,0,VALID,63.3106,VALID,0,VALID,27.7798,VALID,199,VALID,3.56719,
2012-06-05, 02:15:04,VALID,997.775,VALID,0,VALID,63.2343,VALID,0,VALID,27.7798,VALID,195,VALID,3.62578,
2012-06-05, 02:16:04,VALID,997.772,VALID,0,VALID,63.1198,VALID,0,VALID,27.8384,VALID,191,VALID,4.39492,
2012-06-05, 02:17:04,VALID,997.76,VALID,0,VALID,62.7307,VALID,0,VALID,27.897,VALID,195,VALID,5.11055,
2012-06-05, 02:18:04,VALID,997.783,VALID,0,VALID,62.6773,VALID,0,VALID,27.9165,VALID,194,VALID,4.36055,
2012-06-05, 02:19:04,VALID,997.833,VALID,0,VALID,62.7613,VALID,0,VALID,27.9165,VALID,179,VALID,4.81563,
2012-06-05, 02:20:04,VALID,997.8,VALID,0,VALID,62.8528,VALID,0,VALID,27.897,VALID,180,VALID,4.77578,
2012-06-05, 02:21:04,VALID,997.834,VALID,0,VALID,62.8757,VALID,0,VALID,27.8754,VALID,187,VALID,3.48164,
2012-06-05, 02:22:04,VALID,997.855,VALID,0,VALID,63.2114,VALID,0,VALID,27.8189,VALID,185,VALID,3.24219,
2012-06-05, 02:23:04,VALID,997.833,VALID,0,VALID,63.1275,VALID,0,VALID,27.7972,VALID,188,VALID,4.18242,
2012-06-05, 02:24:04,VALID,997.897,VALID,0,VALID,63.509,VALID,0,VALID,27.7798,VALID,184,VALID,3.49375,
2012-06-05, 02:25:04,VALID,997.866,VALID,0,VALID,63.4327,VALID,0,VALID,27.7603,VALID,191,VALID,4.3582,
2012-06-05, 02:26:04,VALID,997.879,VALID,0,VALID,63.7378,VALID,0,VALID,27.6996,VALID,179,VALID,4.08047,
2012-06-05, 02:27:04,VALID,997.856,VALID,0,VALID,63.6234,VALID,0,VALID,27.7212,VALID,184,VALID,4.01914,
2012-06-05, 02:28:04,VALID,997.875,VALID,0,VALID,63.7836,VALID,0,VALID,27.6605,VALID,197,VALID,3.41328,
2012-06-05, 02:29:04,VALID,997.867,VALID,0,VALID,63.9286,VALID,0,VALID,27.6431,VALID,181,VALID,4.05664,
2012-06-05, 02:30:04,VALID,997.844,VALID,0,VALID,63.9362,VALID,0,VALID,27.6431,VALID,181,VALID,5.01563,
2012-06-05, 02:31:04,VALID,997.856,VALID,0,VALID,63.7989,VALID,0,VALID,27.6235,VALID,185,VALID,3.6957,
2012-06-05, 02:32:04,VALID,997.859,VALID,0,VALID,63.776,VALID,0,VALID,27.6431,VALID,184,VALID,3.19492,
2012-06-05, 02:33:04,VALID,997.861,VALID,0,VALID,63.8752,VALID,0,VALID,27.6235,VALID,179,VALID,4.90312,
2012-06-05, 02:34:04,VALID,997.85,VALID,0,VALID,63.8447,VALID,0,VALID,27.6605,VALID,182,VALID,4.49492,
2012-06-05, 02:35:04,VALID,997.891,VALID,0,VALID,63.6158,VALID,0,VALID,27.6605,VALID,184,VALID,3.99844,
2012-06-05, 02:36:04,VALID,997.914,VALID,0,VALID,63.8294,VALID,0,VALID,27.6626,VALID,178,VALID,3.98984,
2012-06-05, 02:37:04,VALID,997.906,VALID,0,VALID,63.7684,VALID,0,VALID,27.6626,VALID,179,VALID,5.19219,
2012-06-05, 02:38:04,VALID,997.885,VALID,0,VALID,63.7378,VALID,0,VALID,27.6821,VALID,177,VALID,5.39883,
2012-06-05, 02:39:04,VALID,997.94,VALID,0,VALID,63.9057,VALID,0,VALID,27.6626,VALID,184,VALID,4.09453,
2012-06-05, 02:40:04,VALID,997.934,VALID,0,VALID,63.9591,VALID,0,VALID,27.6214,VALID,176,VALID,4.89453,
2012-06-05, 02:41:04,VALID,997.938,VALID,0,VALID,63.715,VALID,0,VALID,27.641,VALID,186,VALID,3.8457,
2012-06-05, 02:42:04,VALID,997.896,VALID,0,VALID,63.5318,VALID,0,VALID,27.6821,VALID,184,VALID,4.41953,
2012-06-05, 02:43:05,VALID,997.929,VALID,0,VALID,63.4098,VALID,0,VALID,27.7017,VALID,180,VALID,4.43359,
2012-06-05, 02:44:05,VALID,997.948,VALID,0,VALID,63.364,VALID,0,VALID,27.7407,VALID,183,VALID,4.5168,
2012-06-05, 02:45:05,VALID,997.946,VALID,0,VALID,63.5547,VALID,0,VALID,27.7191,VALID,185,VALID,3.74727,
2012-06-05, 02:46:05,VALID,997.907,VALID,0,VALID,63.6768,VALID,0,VALID,27.7212,VALID,185,VALID,4.28594,
2012-06-05, 02:47:05,VALID,997.922,VALID,0,VALID,63.4098,VALID,0,VALID,27.7212,VALID,183,VALID,4.38359,
2012-06-05, 02:48:05,VALID,997.919,VALID,0,VALID,63.2648,VALID,0,VALID,27.7798,VALID,189,VALID,3.54414,
2012-06-05, 02:49:05,VALID,997.935,VALID,0,VALID,63.158,VALID,0,VALID,27.7993,VALID,195,VALID,4.70625,
2012-06-05, 02:50:05,VALID,997.952,VALID,0,VALID,63.3258,VALID,0,VALID,27.7777,VALID,194,VALID,3.53242,
2012-06-05, 02:51:05,VALID,997.959,VALID,0,VALID,63.2114,VALID,0,VALID,27.7993,VALID,196,VALID,3.78359,
2012-06-05, 02:52:05,VALID,997.982,VALID,0,VALID,63.303,VALID,0,VALID,27.7798,VALID,194,VALID,4.02461,
2012-06-05, 02:53:05,VALID,997.994,VALID,0,VALID,63.425,VALID,0,VALID,27.7603,VALID,197,VALID,3.4793,
2012-06-05, 02:54:05,VALID,998.014,VALID,0,VALID,63.5547,VALID,0,VALID,27.7212,VALID,198,VALID,3.20117,
2012-06-05, 02:55:05,VALID,997.993,VALID,0,VALID,63.837,VALID,0,VALID,27.68,VALID,202,VALID,3.28125,
2012-06-05, 02:56:05,VALID,998.02,VALID,0,VALID,63.7302,VALID,0,VALID,27.7017,VALID,189,VALID,4.11758,
2012-06-05, 02:57:05,VALID,997.997,VALID,0,VALID,63.6234,VALID,0,VALID,27.7191,VALID,191,VALID,5.02891,
2012-06-05, 02:58:05,VALID,998.041,VALID,0,VALID,63.7836,VALID,0,VALID,27.7017,VALID,187,VALID,3.45703,
2012-06-05, 02:59:05,VALID,998.011,VALID,0,VALID,63.6768,VALID,0,VALID,27.7017,VALID,193,VALID,4.20742,
2012-06-05, 03:00:05,VALID,997.99,VALID,0,VALID,63.8141,VALID,0,VALID,27.7017,VALID,199,VALID,2.90547,
2012-06-05, 03:01:05,VALID,997.969,VALID,0,VALID,63.8981,VALID,0,VALID,27.6821,VALID,189,VALID,3.32227,
2012-06-05, 03:02:05,VALID,997.984,VALID,0,VALID,64.1041,VALID,0,VALID,27.6431,VALID,194,VALID,2.95273,
2012-06-05, 03:03:05,VALID,998.005,VALID,0,VALID,64.3558,VALID,0,VALID,27.6235,VALID,185,VALID,3.29727,
2012-06-05, 03:04:05,VALID,997.983,VALID,0,VALID,64.4627,VALID,0,VALID,27.5845,VALID,189,VALID,3.0875,
2012-06-05, 03:05:05,VALID,997.98,VALID,0,VALID,64.661,VALID,0,VALID,27.5454,VALID,179,VALID,3.29922,
2012-06-05, 03:06:05,VALID,997.976,VALID,0,VALID,64.9967,VALID,0,VALID,27.4868,VALID,176,VALID,4.45664,
2012-06-05, 03:07:05,VALID,997.975,VALID,0,VALID,65.0883,VALID,0,VALID,27.4477,VALID,184,VALID,3.57148,
2012-06-05, 03:08:05,VALID,997.932,VALID,0,VALID,65.0807,VALID,0,VALID,27.4672,VALID,175,VALID,3.67773,
2012-06-05, 03:09:05,VALID,997.942,VALID,0,VALID,65.2409,VALID,0,VALID,27.4477,VALID,174,VALID,3.78711,
2012-06-05, 03:10:05,VALID,997.885,VALID,0,VALID,65.3782,VALID,0,VALID,27.4086,VALID,180,VALID,3.30156,
2012-06-05, 03:11:05,VALID,997.877,VALID,0,VALID,65.6681,VALID,0,VALID,27.35,VALID,174,VALID,4.87305,
2012-06-05, 03:12:05,VALID,997.881,VALID,0,VALID,65.8894,VALID,0,VALID,27.2915,VALID,175,VALID,4.85469,
2012-06-05, 03:13:05,VALID,997.836,VALID,0,VALID,66.0725,VALID,0,VALID,27.2719,VALID,171,VALID,4.49141,
2012-06-05, 03:14:05,VALID,997.815,VALID,0,VALID,66.103,VALID,0,VALID,27.2524,VALID,171,VALID,4.61992,
2012-06-05, 03:15:05,VALID,997.845,VALID,0,VALID,66.3701,VALID,0,VALID,27.2329,VALID,177,VALID,3.79961,
2012-06-05, 03:16:05,VALID,997.804,VALID,0,VALID,66.4006,VALID,0,VALID,27.2133,VALID,178,VALID,3.16133,
2012-06-05, 03:17:05,VALID,997.832,VALID,0,VALID,66.5379,VALID,0,VALID,27.1938,VALID,170,VALID,3.69453,
2012-06-05, 03:18:05,VALID,997.83,VALID,0,VALID,66.3777,VALID,0,VALID,27.1917,VALID,176,VALID,4.05586,
2012-06-05, 03:19:05,VALID,997.828,VALID,0,VALID,66.2633,VALID,0,VALID,27.2133,VALID,179,VALID,3.43164,
2012-06-05, 03:20:05,VALID,997.825,VALID,0,VALID,66.4387,VALID,0,VALID,27.2329,VALID,183,VALID,2.68867,
2012-06-05, 03:21:05,VALID,997.878,VALID,0,VALID,66.3624,VALID,0,VALID,27.2329,VALID,178,VALID,3.26523,
2012-06-05, 03:22:05,VALID,997.841,VALID,0,VALID,66.3014,VALID,0,VALID,27.1917,VALID,192,VALID,3.18047,
2012-06-05, 03:23:05,VALID,997.836,VALID,0,VALID,66.4082,VALID,0,VALID,27.2133,VALID,182,VALID,2.90664,
2012-06-05, 03:24:05,VALID,997.853,VALID,0,VALID,66.2022,VALID,0,VALID,27.2329,VALID,191,VALID,3.24492,
2012-06-05, 03:25:05,VALID,997.863,VALID,0,VALID,66.2022,VALID,0,VALID,27.2329,VALID,187,VALID,2.71602,
2012-06-05, 03:26:05,VALID,997.869,VALID,0,VALID,66.2861,VALID,0,VALID,27.2329,VALID,187,VALID,3.54063,
2012-06-05, 03:27:05,VALID,997.873,VALID,0,VALID,66.2556,VALID,0,VALID,27.2329,VALID,178,VALID,3.12305,
2012-06-05, 03:28:05,VALID,997.885,VALID,0,VALID,66.2556,VALID,0,VALID,27.2329,VALID,181,VALID,3.20391,
2012-06-05, 03:29:05,VALID,997.873,VALID,0,VALID,66.1717,VALID,0,VALID,27.2524,VALID,192,VALID,2.58945,
2012-06-05, 03:30:05,VALID,997.864,VALID,0,VALID,66.2633,VALID,0,VALID,27.2308,VALID,191,VALID,2.21875,
2012-06-05, 03:31:05,VALID,997.855,VALID,0,VALID,65.9199,VALID,0,VALID,27.2698,VALID,187,VALID,3.67969,
2012-06-05, 03:32:05,VALID,997.893,VALID,0,VALID,65.9123,VALID,0,VALID,27.311,VALID,182,VALID,3.07344,
2012-06-05, 03:33:05,VALID,997.894,VALID,0,VALID,66.0954,VALID,0,VALID,27.2915,VALID,189,VALID,2.69883,
2012-06-05, 03:34:05,VALID,997.884,VALID,0,VALID,66.1183,VALID,0,VALID,27.2524,VALID,189,VALID,2.41133,
2012-06-05, 03:35:05,VALID,997.904,VALID,0,VALID,66.0954,VALID,0,VALID,27.2719,VALID,197,VALID,1.8625,
2012-06-05, 03:36:05,VALID,997.894,VALID,0,VALID,65.7521,VALID,0,VALID,27.2894,VALID,197,VALID,2.68555,
2012-06-05, 03:37:05,VALID,997.924,VALID,0,VALID,65.691,VALID,0,VALID,27.3305,VALID,191,VALID,2.21406,
2012-06-05, 03:38:05,VALID,997.965,VALID,0,VALID,65.7902,VALID,0,VALID,27.3089,VALID,182,VALID,2.1875,
2012-06-05, 03:39:05,VALID,997.952,VALID,0,VALID,65.9352,VALID,0,VALID,27.2915,VALID,191,VALID,1.49258,
2012-06-05, 03:40:05,VALID,997.944,VALID,0,VALID,65.6681,VALID,0,VALID,27.2915,VALID,188,VALID,1.86172,
2012-06-05, 03:41:05,VALID,997.936,VALID,0,VALID,65.569,VALID,0,VALID,27.3284,VALID,193,VALID,1.31797,
2012-06-05, 03:42:05,VALID,997.93,VALID,0,VALID,65.2867,VALID,0,VALID,27.3891,VALID,199,VALID,2.4,
2012-06-05, 03:43:05,VALID,997.981,VALID,0,VALID,65.218,VALID,0,VALID,27.3891,VALID,189,VALID,1.83086,
2012-06-05, 03:44:05,VALID,997.961,VALID,0,VALID,65.5155,VALID,0,VALID,27.3696,VALID,167,VALID,2.37734,
2012-06-05, 03:45:05,VALID,997.963,VALID,0,VALID,66.2327,VALID,0,VALID,27.2719,VALID,160,VALID,1.76172,
2012-06-05, 03:46:05,VALID,997.966,VALID,0,VALID,66.8431,VALID,0,VALID,27.0961,VALID,161,VALID,1.88281,